Location: Newark
(44.3681°N, 100.3364°W)
Time: 20:32:41
(UTC+00:00)

S-56A Canister/Altair - Pass Details

Date: 07 March 2020
Orbit: 634 x 2498 km, 38.9° (Epoch: 07 April)

Event Time Altitude Azimuth Distance (km) Brightness Sun altitude
Rises 19:48:05 0° 283° (WNW) 5,748 12.0 39.2°
Reaches altitude 10° 19:52:07 10° 275° (W) 4,917 11.9 39.0°
Maximum altitude 20:04:15 34° 219° (SW) 3,563 13.0 38.2°
Drops below altitude 10° 20:16:32 10° 162° (SSE) 4,954 12.3 37.3°
Sets 20:20:40 0° 153° (SSE) 5,792 12.4 36.9°
